Estación meteorológica de Estany Gento (Pallars Jussà, Vall Fosca)

Consulta los datos en tiempo real de la estación meteorológica de Estany Gento





Hora UTC 08:55
Temperatura 1.8 ºC
Humedad 83.0 %
Presión 1013.4 hPa
Pluja 0.0 mm
Velocidad viento 1.6 km/h
Dirección viento

Webcam

Datos diarios 2026-05-06



Hora UTC (invierno +1h; verano +2h)
Temperatura (ºC) Humedad (%) Presión (hPa) Velocidad viento (km/h) Precipitación (mm)
Hora UTC Aire Humedad Presión Vel. Dir. Vel. Max Dir. Intent. máx 5 min.
00:05 0.6 89.0 1012.6 0.0 16.1 2.6
00:10 0.6 89.0 1012.6 0.0 16.1 0.0
00:15 0.6 89.0 1012.6 0.0 16.1 0.0
00:20 0.4 88.0 1012.4 6.4 16.1 0.0
00:25 0.4 88.0 1012.4 6.4 16.1 0.0
00:30 0.4 88.0 1012.4 6.4 16.1 0.0
00:35 0.0 88.0 1012.4 0.0 16.1 0.0
00:40 0.0 88.0 1012.4 0.0 16.1 0.0
00:45 0.0 88.0 1012.4 0.0 16.1 0.0
00:50 0.0 88.0 1012.4 0.0 16.1 0.0
00:55 0.0 89.0 1012.1 1.6 16.1 0.0
01:00 0.0 89.0 1012.1 1.6 16.1 0.0
01:05 0.1 87.0 1012.1 0.0 16.1 0.0
01:10 0.1 87.0 1012.1 0.0 16.1 0.0
01:15 0.1 87.0 1012.1 0.0 16.1 0.0
01:20 0.1 87.0 1012.1 0.0 16.1 0.0
01:25 -0.1 87.0 1012.0 0.0 16.1 0.0
01:30 -0.1 87.0 1012.0 0.0 16.1 0.0
01:35 -0.2 87.0 1011.9 0.0 16.1 0.0
01:40 -0.2 87.0 1011.9 0.0 16.1 0.0
01:45 -0.2 87.0 1011.9 0.0 16.1 0.0
01:50 -0.2 87.0 1011.9 0.0 16.1 0.0
01:55 0.0 87.0 1012.0 0.0 16.1 0.0
02:00 0.0 87.0 1012.0 0.0 16.1 0.0
02:05 0.1 87.0 1011.9 0.0 16.1 0.0
02:10 0.1 87.0 1011.9 0.0 16.1 0.0
02:15 0.1 87.0 1011.9 0.0 16.1 0.0
02:20 0.1 87.0 1011.9 0.0 16.1 0.0
02:25 -0.2 84.0 1011.9 0.0 16.1 0.0
02:30 -0.2 84.0 1011.9 0.0 16.1 0.0
02:35 -0.3 88.0 1011.7 0.0 16.1 0.0
02:40 -0.3 88.0 1011.7 0.0 16.1 0.0
02:45 -0.3 88.0 1011.7 0.0 16.1 0.0
02:50 -0.3 88.0 1011.7 0.0 16.1 0.0
02:55 -0.3 87.0 1011.9 0.0 16.1 0.0
03:00 -0.3 87.0 1011.9 0.0 16.1 0.0
03:05 -0.2 87.0 1011.8 0.0 16.1 0.0
03:10 -0.2 87.0 1011.8 0.0 16.1 0.0
03:15 -0.2 87.0 1011.8 0.0 16.1 0.0
03:20 -0.2 87.0 1011.8 0.0 16.1 0.0
03:25 -0.2 86.0 1011.7 1.6 16.1 0.0
03:30 -0.2 86.0 1011.7 1.6 16.1 0.0
03:35 -0.4 83.0 1011.7 0.0 16.1 0.0
03:40 -0.4 83.0 1011.7 0.0 16.1 0.0
03:45 -0.7 81.0 1011.7 3.2 16.1 0.0
03:50 -0.7 81.0 1011.7 3.2 16.1 0.0
03:55 -0.7 81.0 1011.7 3.2 16.1 0.0
04:00 -0.7 81.0 1011.7 3.2 16.1 0.0
04:05 -1.1 87.0 1011.9 0.0 16.1 0.0
04:10 -1.1 87.0 1011.9 0.0 16.1 0.0
04:15 -1.1 87.0 1011.9 0.0 16.1 0.0
04:20 -1.1 87.0 1011.9 0.0 16.1 0.0
04:25 -1.1 90.0 1011.9 0.0 16.1 0.0
04:30 -1.1 90.0 1011.9 0.0 16.1 0.0
04:35 -0.9 90.0 1012.0 0.0 16.1 0.0
04:40 -0.9 90.0 1012.0 0.0 16.1 0.0
04:45 -0.9 90.0 1012.0 0.0 16.1 0.0
04:50 -0.9 90.0 1012.0 0.0 16.1 0.0
04:55 -1.2 90.0 1011.8 0.0 16.1 0.0
05:00 -1.2 90.0 1011.8 0.0 16.1 0.0
05:05 -1.1 89.0 1011.8 0.0 16.1 0.0
05:10 -1.1 89.0 1011.8 0.0 16.1 0.0
05:15 -1.1 89.0 1011.8 0.0 16.1 0.0
05:20 -1.1 89.0 1011.8 0.0 16.1 0.0
05:25 -1.2 87.0 1012.1 0.0 16.1 0.0
05:30 -1.2 87.0 1012.1 0.0 16.1 0.0
05:35 -1.3 86.0 1012.2 0.0 16.1 0.0
05:40 -1.3 86.0 1012.2 0.0 16.1 0.0
05:45 -1.3 86.0 1012.2 0.0 16.1 0.0
05:50 -1.3 86.0 1012.2 0.0 16.1 0.0
05:55 -1.3 87.0 1012.3 0.0 16.1 0.0
06:00 -1.3 87.0 1012.3 0.0 16.1 0.0
06:05 -1.5 93.0 1012.5 0.0 16.1 0.0
06:10 -1.5 93.0 1012.5 0.0 16.1 0.0
06:15 -1.5 93.0 1012.5 0.0 16.1 0.0
06:20 -1.5 93.0 1012.5 0.0 16.1 0.0
06:25 -1.3 94.0 1012.7 0.0 16.1 0.0
06:30 -1.3 94.0 1012.7 0.0 16.1 0.0
06:35 -0.2 93.0 1012.7 4.8 16.1 0.0
06:40 -0.2 93.0 1012.7 4.8 16.1 0.0
06:45 -0.2 93.0 1012.7 4.8 16.1 0.0
06:50 -0.2 93.0 1012.7 4.8 16.1 0.0
06:55 0.2 86.0 1012.8 0.0 16.1 0.0
07:00 0.2 86.0 1012.8 0.0 16.1 0.0
07:05 0.8 83.0 1012.7 0.0 16.1 0.0
07:10 0.8 83.0 1012.7 0.0 16.1 0.0
07:15 0.8 83.0 1012.7 0.0 16.1 0.0
07:20 1.9 81.0 1012.8 0.0 16.1 0.0
07:25 1.9 81.0 1012.8 0.0 16.1 0.0
07:30 1.9 81.0 1012.8 0.0 16.1 0.0
07:35 3.3 74.0 1012.9 0.0 16.1 0.0
07:40 3.3 74.0 1012.9 0.0 16.1 0.0
07:45 3.3 74.0 1012.9 0.0 16.1 0.0
07:50 1.4 83.0 1013.0 1.6 16.1 0.0
07:55 1.4 83.0 1013.0 1.6 16.1 0.0
08:00 1.4 83.0 1013.0 1.6 16.1 0.0
08:05 1.2 82.0 1012.9 1.6 16.1 0.0
08:10 1.2 82.0 1012.9 1.6 16.1 0.0
08:15 1.2 82.0 1012.9 1.6 16.1 0.0
08:20 1.3 82.0 1013.2 3.2 16.1 0.0
08:25 1.3 82.0 1013.2 3.2 16.1 0.0
08:30 1.3 82.0 1013.2 3.2 16.1 0.0
08:35 1.6 83.0 1013.2 1.6 16.1 0.0
08:40 1.6 83.0 1013.2 1.6 16.1 0.0
08:45 1.6 83.0 1013.2 1.6 16.1 0.0
08:50 1.6 83.0 1013.2 1.6 16.1 0.0
08:55 1.8 83.0 1013.4 1.6 16.1 0.0
Máxima 3.3 94.0 1013.4 6.4 16.1 2.6
Mínima -1.5 74.0 1011.7
Total 2.6